Regional Weather Roundup
Issued by NWS Upton, NY

Home | Current Version | Previous Version | Text Only | Print | Product List | Glossary On
Versions: 1 2 3 4 5 6 7 8 9 10 11 12 13 14 15 16 17 18 19 20 21 22 23 24 25 26 27 28 29 30 31 32 33 34 35 36 37 38 39 40 41 42 43 44 45 46 47 48 49 50
000
ASUS41 KOKX 221808
RWROKX

REGIONAL WEATHER ROUNDUP
NATIONAL WEATHER SERVICE NEW YORK NY
200 PM EDT MON SEP 22 2014

NOTE: "FAIR" INDICATES FEW OR NO CLOUDS BELOW 12,000 FEET WITH NO
SIGNIFICANT WEATHER AND/OR OBSTRUCTIONS TO VISIBILITY.

NYZ071-072-176-178-NJZ106-104-221900-
NEW YORK CITY METRO AREA


CITY           SKY/WX    TMP DP  RH WIND       PRES   REMARKS
CENTRAL PARK   CLOUDY    68  47  46 VRB6      29.93R
LAGUARDIA APRT NOT AVBL
KENNEDY INTL   NOT AVBL
NEWARK/LIBERTY NOT AVBL
BRNX BOT. GARD   N/A     70  46  43 N9        29.90F
TETERBORO      NOT AVBL
$$

NYZ177-179-078>081-221900-
LONG ISLAND NEW YORK

CITY           SKY/WX    TMP DP  RH WIND       PRES   REMARKS
FARMINGDALE    NOT AVBL
ISLIP          NOT AVBL
SHIRLEY        NOT AVBL
WESTHAMPTON    NOT AVBL
MONTAUK POINT  NOT AVBL
$$

NYZ052-065-067-221900-
HUDSON VALLEY

CITY           SKY/WX    TMP DP  RH WIND       PRES   REMARKS
WHITE PLAINS   NOT AVBL
NEWBURGH       NOT AVBL
MONTGOMERY     NOT AVBL
POUGHKEEPSIE   NOT AVBL
ALBANY         NOT AVBL
$$

NJZ001-105-106-008-010-013-015-019>022-104-221900-
NEW JERSEY

CITY           SKY/WX    TMP DP  RH WIND       PRES   REMARKS
NEWARK/LIBERTY NOT AVBL
TETERBORO      NOT AVBL
CALDWELL       NOT AVBL
MORRISTOWN     NOT AVBL
SOMERVILLE     NOT AVBL
LINDEN         MOCLDY    75  51  43 NW14G22   29.94R
SUSSEX         NOT AVBL
ANDOVER        NOT AVBL
TRENTON        NOT AVBL
MILLVILLE      NOT AVBL
ATLANTIC CITY  NOT AVBL
WRIGHTSTOWN    NOT AVBL
TOMS RIVER     NOT AVBL
BELMAR         NOT AVBL
$$

PAZ047>061-062-071-221900-
EASTERN PENNSYLVANIA

CITY           SKY/WX    TMP DP  RH WIND       PRES   REMARKS
PHILADELPHIA   NOT AVBL
ALLENTOWN      NOT AVBL
SCRANTON       NOT AVBL
$$

CTZ002-004>006-009-010-012-RIZ004-006-007-MAZ004-011-015-221900-
SOUTHERN NEW ENGLAND
 IN CT

CITY           SKY/WX    TMP DP  RH WIND       PRES   REMARKS
BRADLEY INTL   NOT AVBL
HARTFORD       NOT AVBL
DANBURY        NOT AVBL
WTRBRY/OXFORD  NOT AVBL
BRIDGEPORT     NOT AVBL
MERIDEN        NOT AVBL
NEW HAVEN      NOT AVBL
CHESTER        FAIR      70  48  46 NW10G17   29.86R
GROTON         NOT AVBL
WILLIMANTIC    NOT AVBL

 IN RI

CITY           SKY/WX    TMP DP  RH WIND       PRES   REMARKS
PROVIDENCE     NOT AVBL
BLOCK ISLAND   NOT AVBL
WESTERLY       NOT AVBL

 IN MA

CITY           SKY/WX    TMP DP  RH WIND       PRES   REMARKS
BOSTON         NOT AVBL
WORCESTER      NOT AVBL
WESTFIELD      NOT AVBL
PROVINCETOWN   NOT AVBL
NANTUCKET      NOT AVBL
$$

ANZ330-335-338-340-345-350-353-355-221900-
COASTAL MARINE OBSERVATIONS


STATION/POSITION TIME  SKY/WX   TEMP    WIND        PRES    VSBY  WAVE
                                AIR SEA DIR/SP/G                  HT/PER
                 (UTC)          (F)     (DEG/KT/KT) (MB)    (MI)  (FT/S)
NY HARB ENTRANCE 1800            67 70  290/ 16/ 19 1013.1          5/11
4S FIRE IS       1700               70                N/A           6/11
20S FIRE ISLAND  1800            67 68  300/ 17/ 21 1012.2          7/10
23SW MTP         1700                                 N/A           8/11
HUDSON CANYON    1700            67 70  290/ 17/ 19 1012.1          9/10
EXECUTION ROCKS  1700            69 70  310/ 16/ 21   N/A
WESTERN LI SOUND 1800            68     300/ 14/ 17   N/A           1/ 2
CENTRAL LI SOUND 1700            69 70  280/ 16/ 17   N/A           3/ 4
EASTERN LI SOUND 1700            69 68  300/ 12/ 17   N/A
ROBBINS REEF     1800            67     290/ 18/ 22 1011.6
$$


>>>>>>>>>>>>>>>>>>>>>>>>>>>> KEY <<<<<<<<<<<<<<<<<<<<<<<<<<<
>                                                          <
>     SKY/WX - SKY CONDITION/PRESENT WEATHER               <
>     TMP    - TEMPERATURE IN FAHRENHEIT                   <
>     DP     - DEWPOINT IN FAHRENHEIT                      <
>     RH     - RELATIVE HUMIDITY IN PERCENT                <
>     WIND   - DIRECTION AND SPEED IN MPH                  <
>     PRES   - MEAN SEA LEVEL PRESSURE IN INCHES OF HG     <
>     WCI    - WIND CHILL INDEX                            <
>     VSB    - VISIBILITY IN MILES                         <
>     HX     - HEAT INDEX                                  <
>     TC     - TEMPERATURE IN CELSIUS                      <
>     VRB    - VARIABLE WIND DIRECTION                     <
>                                                          <
>>>>>>>>>>>>>>>>>>>>>>>>>>>> KEY <<<<<<<<<<<<<<<<<<<<<<<<<<<





USA.gov is the U.S. government's official web portal to all federal, state and local government web resources and services.